DW0148 Weather Reports


time (UTC)temp
F
wind
direction
speed
knots
gust
knots
rain 1hr
in
rain 24hr
in
rain mn
in
humidity
%
barometer
mb
20170728110018 73 218 0.9 2.6 0.00 1.01 0.00 96 1011.5
20170728105515 73 217 0.9 2.6 0.00 1.02 0.00 96 1011.5
20170728105014 73 205 0.9 2.6 0.00 1.03 0.00 96 1011.5
20170728104514 73 224 0.9 3.5 0.00 1.03 0.00 96 1011.5
20170728104013 73 51 1.7 3.5 0.00 1.06 0.00 96 1011.5
20170728103512 73 61 1.7 2.6 0.00 1.11 0.00 96 1011.5
20170728103011 73 60 0.0 0.9 0.00 1.12 0.00 97 1011.5
20170728102510 73 60 0.0 0.9 0.00 1.12 0.00 97 1011.5
20170728102009 73 60 0.9 0.9 0.00 1.12 0.00 97 1011.5
20170728101508 73 60 0.9 0.9 0.00 1.12 0.00 97 1011.9
20170728101008 73 85 0.9 0.9 0.00 1.12 0.00 97 1011.9
20170728100507 73 85 0.0 0.0 0.00 1.12 0.00 97 1011.9
20170728100005 73 84 0.0 0.0 0.00 1.12 0.00 97 1011.5
20170728095504 73 84 0.0 0.0 0.00 1.12 0.00 97 1011.5
20170728095004 73 84 0.0 0.9 0.00 1.12 0.00 97 1011.5
20170728094502 73 85 0.0 0.9 0.00 1.12 0.00 97 1011.5
20170728094001 73 84 0.0 0.9 0.00 1.12 0.00 97 1011.5
20170728093500 73 84 0.9 0.9 0.00 1.12 0.00 97 1011.5
20170728092959 73 85 0.0 0.0 0.00 1.12 0.00 97 1011.5
20170728092459 73 84 0.0 0.0 0.00 1.12 0.00 97 1011.5
20170728091958 73 84 0.0 0.9 0.00 1.12 0.00 97 1011.5
20170728091457 73 84 0.0 0.9 0.00 1.12 0.00 97 1011.5
20170728090956 73 85 0.0 0.9 0.00 1.12 0.00 97 1011.5
20170728090455 73 85 0.0 0.9 0.00 1.12 0.00 97 1011.5
20170728085954 73 104 0.9 0.9 0.00 1.12 0.00 97 1011.9
20170728085453 73 104 0.0 0.9 0.00 1.12 0.00 97 1011.9
20170728084952 73 107 0.0 0.9 0.00 1.12 0.00 97 1011.9
20170728084450 73 108 0.0 0.9 0.00 1.12 0.00 97 1011.9
20170728083949 72 108 0.0 0.9 0.00 1.12 0.00 97 1011.9
20170728083449 72 107 0.9 0.9 0.00 1.12 0.00 97 1011.9
20170728082948 72 69 0.9 0.9 0.00 1.12 0.00 97 1011.9
20170728082447 72 71 0.0 0.0 0.00 1.12 0.00 97 1011.9
20170728081946 72 71 0.0 0.0 0.00 1.12 0.00 97 1011.9
20170728081445 72 70 0.0 0.0 0.00 1.12 0.00 97 1011.9
20170728080944 72 70 0.0 0.0 0.00 1.12 0.00 97 1011.9
20170728080443 72 70 0.0 0.0 0.00 1.12 0.00 97 1011.9
20170728075942 72 70 0.0 0.0 0.00 1.12 0.00 97 1011.9
20170728075441 72 70 0.0 0.0 0.00 1.12 0.00 97 1012.2
20170728074940 73 70 0.0 0.0 0.00 1.12 0.00 97 1011.9
20170728074439 72 72 0.0 0.0 0.00 1.12 0.00 97 1012.2
20170728073938 72 72 0.0 0.0 0.00 1.12 0.00 97 1012.2
20170728073437 72 72 0.0 0.0 0.00 1.12 0.00 97 1012.2
20170728072936 72 72 0.0 0.0 0.00 1.12 0.00 97 1012.2
20170728072435 73 72 0.0 0.0 0.00 1.12 0.00 97 1012.2
20170728071934 73 72 0.0 0.0 0.00 1.12 0.00 96 1012.2
20170728071433 73 72 0.0 0.0 0.00 1.12 0.00 96 1012.2
20170728070932 73 72 0.0 0.0 0.00 1.12 0.00 96 1012.2
20170728070431 73 72 0.0 0.0 0.00 1.12 0.00 96 1012.2
20170728065930 73 72 0.0 0.0 0.00 1.12 0.00 96 1012.2
20170728065429 73 72 0.0 0.0 0.00 1.12 0.00 97 1012.2
20170728064929 73 72 0.0 0.0 0.00 1.12 0.00 96 1012.2
20170728064428 73 72 0.0 0.0 0.00 1.12 0.00 96 1012.2
20170728063927 73 72 0.0 0.0 0.00 1.12 0.00 96 1012.2
20170728063426 73 72 0.0 0.0 0.00 1.12 0.00 96 1012.5
20170728062925 73 72 0.0 0.0 0.00 1.12 0.00 96 1012.5
20170728062424 73 72 0.0 0.0 0.00 1.12 0.00 96 1012.5
20170728061923 73 70 0.0 0.0 0.00 1.12 0.00 96 1012.5
20170728061422 73 70 0.0 0.0 0.00 1.12 0.00 96 1012.5
20170728060921 73 71 0.0 0.0 0.00 1.12 0.00 96 1012.9
20170728060420 73 71 0.0 0.0 0.00 1.12 0.00 96 1012.9
20170728055919 73 70 0.0 0.0 0.00 1.12 0.00 96 1012.5
20170728055329 73 70 0.0 0.0 0.00 1.12 0.00 96 1012.9
20170728054828 73 71 0.0 0.0 0.00 1.12 0.00 96 1012.9
20170728054327 73 71 0.0 0.0 0.00 1.12 0.00 96 1012.9
20170728053825 73 71 0.0 0.0 0.00 1.12 0.00 96 1012.9
20170728053324 74 71 0.0 0.0 0.00 1.12 0.00 96 1012.9
20170728052823 74 71 0.0 0.0 0.00 1.12 0.00 96 1012.9
20170728052323 74 71 0.0 0.0 0.00 1.12 0.00 96 1012.9
20170728051822 74 71 0.0 0.0 0.00 1.12 0.00 96 1012.9
20170728051321 74 71 0.0 0.0 0.00 1.12 0.00 96 1012.9
20170728050820 74 71 0.0 0.0 0.00 1.12 0.00 96 1012.9
20170728050319 74 71 0.0 0.0 0.00 1.12 0.00 96 1012.9
20170728045818 74 71 0.0 0.9 0.00 1.12 0.00 96 1012.9
20170728045317 74 71 0.0 0.9 0.00 1.12 0.00 96 1012.9
20170728044816 74 70 0.0 0.9 0.00 1.12 0.00 96 1012.9
20170728044314 74 75 0.9 0.9 0.00 1.12 0.00 96 1012.9
20170728043813 74 75 0.0 0.0 0.00 1.12 0.00 96 1012.9
20170728043312 74 75 0.0 0.0 0.00 1.12 0.00 96 1012.9
20170728042812 74 75 0.0 0.0 0.00 1.12 0.00 96 1012.9
20170728042311 74 77 0.0 0.0 0.00 1.12 0.00 96 1012.9
20170728041810 74 77 0.0 0.0 0.00 1.12 0.00 96 1012.9
20170728041309 74 76 0.0 0.0 0.00 1.12 0.00 96 1012.9
20170728040808 75 77 0.0 0.0 0.00 1.12 0.00 96 1012.9
20170728040307 75 77 0.0 0.0 0.00 1.12 0.00 96 1012.9
20170728035806 75 77 0.0 0.0 0.00 1.12 1.12 96 1012.9
20170728035302 75 76 0.0 0.0 0.00 1.12 1.12 96 1012.9
20170728034801 75 77 0.0 0.0 0.00 1.12 1.12 96 1012.9
20170728034300 75 76 0.0 0.0 0.00 1.12 1.12 96 1012.9
20170728033759 75 77 0.0 0.0 0.00 1.12 1.12 96 1012.9
20170728033259 75 76 0.0 0.0 0.00 1.12 1.12 96 1012.9
20170728032757 75 77 0.0 0.0 0.00 1.12 1.12 96 1013.2
20170728032256 75 77 0.0 0.0 0.00 1.12 1.12 95 1013.2
20170728031755 75 77 0.0 0.0 0.00 1.12 1.12 96 1013.2
20170728031253 75 76 0.0 0.0 0.00 1.12 1.12 95 1013.2
20170728030752 75 76 0.0 0.0 0.00 1.12 1.12 95 1012.9
20170728030251 75 76 0.0 0.0 0.00 1.12 1.12 95 1012.9
20170728025750 75 77 0.0 0.0 0.00 1.12 1.12 95 1012.9
20170728025249 76 77 0.0 0.0 0.00 1.12 1.12 95 1012.9
20170728024748 76 77 0.0 0.0 0.00 1.12 1.12 95 1012.9
20170728024247 76 76 0.0 0.0 0.00 1.12 1.12 95 1012.9
20170728023746 76 77 0.0 0.0 0.00 1.12 1.12 95 1012.9
20170728023245 76 77 0.0 0.0 0.00 1.12 1.12 95 1012.9
20170728022744 76 76 0.0 0.0 0.00 1.12 1.12 95 1012.9
20170728022243 76 76 0.0 0.0 0.00 1.12 1.12 95 1012.9
20170728021742 76 77 0.0 0.0 0.00 1.12 1.12 95 1012.9
20170728021239 76 77 0.0 0.0 0.00 1.12 1.12 95 1013.2
20170728020739 76 77 0.0 0.9 0.00 1.12 1.12 95 1012.9
20170728020238 76 77 0.0 0.9 0.00 1.12 1.12 95 1012.9
20170728015737 76 76 0.0 0.9 0.00 1.12 1.12 94 1013.2
20170728015236 76 77 0.0 0.9 0.00 1.12 1.12 94 1013.2
20170728014735 76 77 0.0 0.0 0.00 1.12 1.12 94 1013.2
20170728014234 76 77 0.0 0.0 0.00 1.12 1.12 94 1013.2
20170728013733 77 77 0.0 0.0 0.00 1.12 1.12 94 1013.2
20170728013232 77 77 0.0 0.0 0.00 1.12 1.12 94 1013.2
20170728012731 77 75 0.0 0.0 0.00 1.12 1.12 94 1013.2
20170728012230 77 75 0.0 0.0 0.00 1.12 1.12 94 1013.2
20170728011729 77 77 0.0 0.0 0.00 1.12 1.12 94 1013.2
20170728011228 77 75 0.0 0.0 0.00 1.12 1.12 94 1013.5
20170728010727 77 75 0.0 0.0 0.00 1.12 1.12 93 1013.5
20170728010226 77 75 0.0 0.0 0.00 1.12 1.12 93 1013.5
20170728005726 78 75 0.0 0.0 0.00 1.12 1.12 93 1013.5
20170728005224 78 75 0.0 0.0 0.00 1.12 1.12 92 1013.2
20170728004723 78 75 0.0 0.0 0.00 1.12 1.12 92 1013.2
20170728004222 78 75 0.0 0.0 0.00 1.12 1.12 92 1013.2
20170728003722 79 75 0.0 0.0 0.00 1.12 1.12 92 1013.2
20170728003220 79 75 0.0 0.0 0.00 1.12 1.12 91 1013.2
20170728002719 79 75 0.0 0.9 0.00 1.12 1.12 91 1013.2
20170728002218 79 77 0.0 0.9 0.00 1.12 1.12 91 1013.2
20170728001717 80 75 0.0 0.9 0.00 1.12 1.12 91 1013.2
20170728001213 80 75 0.9 0.9 0.00 1.12 1.12 90 1013.2
20170728000712 80 75 0.0 0.9 0.00 1.12 1.12 90 1013.2
20170728000211 80 75 0.0 0.9 0.00 1.12 1.12 90 1013.2
20170727235710 81 75 0.0 0.9 0.00 1.12 1.12 88 1013.2
20170727235209 81 75 0.9 0.9 0.00 1.12 1.12 88 1013.2
20170727234708 81 75 0.9 0.9 0.00 1.12 1.12 88 1012.9
20170727234206 82 75 0.9 2.6 0.00 1.12 1.12 88 1012.9
20170727233705 83 75 0.9 2.6 0.00 1.12 1.12 86 1012.9
20170727233204 83 146 0.0 2.6 0.00 1.12 1.12 87 1012.9
20170727232703 84 146 0.9 2.6 0.00 1.12 1.12 84 1012.9
20170727232202 84 149 0.0 2.6 0.00 1.12 1.12 83 1012.9
20170727231701 84 178 1.7 2.6 0.00 1.12 1.12 79 1012.9
20170727231159 85 163 0.0 2.6 0.00 1.12 1.12 81 1012.9
20170727230658 85 129 0.9 2.6 0.00 1.12 1.12 81 1012.9
20170727230158 85 173 0.9 3.5 0.00 1.12 1.12 80 1012.9
20170727225656 86 205 1.7 3.5 0.00 1.12 1.12 78 1012.9
20170727225155 86 140 0.0 0.9 0.00 1.12 1.12 82 1012.9
20170727224655 86 138 0.9 0.9 0.00 1.12 1.12 80 1012.9
20170727224153 86 167 0.0 1.7 0.00 1.12 1.12 78 1012.9
20170727223652 86 238 0.9 1.7 0.00 1.12 1.12 81 1012.5
20170727223152 86 243 0.0 2.6 0.00 1.12 1.12 80 1012.5
20170727222650 86 16 0.9 2.6 0.00 1.12 1.12 77 1012.5
20170727222149 86 204 0.9 0.9 0.00 1.12 1.12 76 1012.5
20170727221648 86 222 0.0 0.9 0.00 1.12 1.12 78 1012.5
20170727221147 86 117 0.9 0.9 0.00 1.12 1.12 77 1012.5
20170727220646 86 226 0.9 1.7 0.00 1.12 1.12 76 1012.5
20170727220145 87 217 0.9 1.7 0.00 1.12 1.12 77 1012.5
20170727215644 86 217 0.0 3.5 0.00 1.12 1.12 78 1012.5
20170727215142 86 195 1.7 3.5 0.00 1.12 1.12 76 1012.9
20170727214641 87 204 0.9 3.5 0.00 1.12 1.12 74 1012.9
20170727214140 87 217 0.9 2.6 0.00 1.12 1.12 74 1012.9
20170727213639 87 121 0.9 2.6 0.00 1.12 1.12 77 1012.9
20170727213138 86 161 0.9 2.6 0.00 1.12 1.12 76 1013.2
20170727212637 86 195 0.9 3.5 0.00 1.12 1.12 77 1013.2
20170727212135 85 110 0.9 3.5 0.00 1.12 1.12 78 1013.2
20170727211634 85 58 1.7 3.5 0.00 1.12 1.12 78 1013.2
20170727211130 84 156 0.9 4.3 0.00 1.12 1.12 82 1013.2
20170727210629 83 197 1.7 4.3 0.00 1.12 1.12 80 1013.2
20170727210128 83 163 1.7 4.3 0.00 1.12 1.12 83 1013.5
20170727205627 83 157 0.9 4.3 0.00 1.12 1.12 83 1013.5
20170727205126 84 215 0.9 4.3 0.00 1.12 1.12 83 1013.5
20170727204625 84 51 0.9 5.2 0.00 1.12 1.12 83 1013.5
20170727204125 84 146 1.7 5.2 0.00 1.12 1.12 87 1013.5
20170727203623 84 178 1.7 5.2 0.00 1.12 1.12 82 1013.9
20170727203122 84 218 2.6 4.3 0.00 1.12 1.12 81 1013.5
20170727202621 84 166 1.7 5.2 0.00 1.12 1.12 87 1013.9
20170727202120 84 202 1.7 5.2 0.00 1.12 1.12 88 1013.9
20170727201619 83 181 1.7 5.2 0.00 1.12 1.12 87 1013.9
20170727201118 83 188 0.9 2.6 0.01 1.12 1.12 91 1013.9
20170727200617 82 189 0.9 4.3 0.01 1.12 1.12 91 1013.9
20170727200116 82 131 0.0 4.3 0.17 1.12 1.12 91 1014.2
20170727195615 82 133 0.9 5.2 0.46 1.12 1.12 91 1014.2
20170727195114 81 153 1.7 5.2 0.74 1.12 1.12 92 1014.2
20170727194613 80 187 1.7 4.3 0.89 1.12 1.12 93 1014.6
20170727194111 79 245 1.7 2.6 0.95 1.12 1.12 96 1014.6
20170727193610 78 235 0.9 2.6 0.99 1.12 1.12 96 1014.6
20170727193109 77 59 0.9 4.3 0.99 1.12 1.12 96 1014.9
20170727192608 76 55 1.7 4.3 0.99 1.12 1.12 96 1014.9
20170727192107 75 56 0.9 8.7 0.99 1.12 1.12 95 1014.9
20170727191606 75 343 3.5 22.6 0.99 1.12 1.12 94 1014.6
20170727191105 75 235 1.7 22.6 0.98 1.11 1.11 93 1014.6
20170727190604 76 142 2.6 29.5 0.98 1.11 1.11 90 1014.9
20170727190103 77 339 18.2 29.5 0.82 0.96 0.96 86 1015.6
20170727185602 79 337 2.6 7.8 0.50 0.64 0.64 88 1015.9
20170727185101 81 314 2.6 8.7 0.25 0.39 0.39 84 1014.9
20170727184600 84 278 0.9 8.7 0.09 0.23 0.23 83 1014.9
20170727184059 87 73 1.7 11.3 0.04 0.18 0.18 75 1014.6
20170727183558 88 177 3.5 11.3 0.00 0.14 0.14 68 1014.6
20170727183057 89 163 5.2 7.8 0.00 0.14 0.14 68 1014.6
20170727182556 89 176 4.3 7.0 0.00 0.14 0.14 69 1014.6
20170727182055 89 191 2.6 7.0 0.00 0.14 0.14 71 1014.6
20170727181554 90 174 3.5 7.0 0.00 0.14 0.14 69 1014.6
20170727181053 90 251 0.9 7.0 0.00 0.14 0.14 69 1014.9
20170727180552 89 172 3.5 8.7 0.00 0.14 0.14 70 1014.9
20170727180051 90 166 3.5 8.7 0.00 0.14 0.14 67 1014.9
20170727175550 90 155 0.9 5.2 0.00 0.14 0.14 68 1015.2
20170727175049 90 154 1.7 6.1 0.00 0.14 0.14 67 1015.2
20170727174548 90 123 1.7 7.0 0.00 0.14 0.14 69 1015.6
20170727174047 89 266 1.7 7.8 0.00 0.14 0.14 68 1015.6
20170727173546 89 179 3.5 7.8 0.00 0.14 0.14 69 1015.6
20170727173045 88 296 0.9 7.8 0.00 0.14 0.14 70 1015.6
20170727172544 88 128 0.9 7.8 0.00 0.14 0.14 74 1015.2
20170727172044 88 115 1.7 9.6 0.00 0.14 0.14 70 1015.2
20170727171543 87 178 6.1 9.6 0.00 0.14 0.14 73 1015.2
20170727171042 87 167 5.2 9.6 0.00 0.14 0.14 74 1015.6
20170727170541 87 187 4.3 11.3 0.00 0.14 0.14 74 1015.6
20170727170040 87 169 6.1 11.3 0.00 0.14 0.14 73 1015.9
20170727165539 86 217 2.6 10.4 0.00 0.14 0.14 73 1015.9
20170727165038 86 179 3.5 12.2 0.00 0.14 0.14 74 1015.9
20170727164537 86 156 5.2 12.2 0.00 0.14 0.14 73 1016.3
20170727164036 86 162 7.0 11.3 0.00 0.14 0.14 74 1016.3
20170727163535 85 187 5.2 9.6 0.00 0.14 0.14 75 1016.6
20170727163034 85 176 5.2 8.7 0.00 0.14 0.14 74 1016.6
20170727162533 85 164 3.5 8.7 0.00 0.14 0.14 76 1016.6
20170727162023 84 183 4.3 8.7 0.00 0.14 0.14 75 1016.6
20170727161522 84 167 2.6 7.8 0.00 0.14 0.14 78 1016.6
20170727161021 84 204 4.3 7.8 0.00 0.14 0.14 76 1016.9
20170727160520 83 179 5.2 7.8 0.00 0.14 0.14 77 1016.9
20170727160019 83 147 1.7 6.1 0.00 0.14 0.14 79 1016.9
20170727155518 83 163 2.6 6.1 0.00 0.14 0.14 78 1017.3
20170727155016 83 164 2.6 7.0 0.00 0.14 0.14 77 1017.3
20170727154516 82 152 2.6 7.8 0.00 0.14 0.14 79 1017.3
20170727154015 82 171 2.6 7.8 0.00 0.14 0.14 80 1017.6
20170727153514 82 227 1.7 6.1 0.00 0.14 0.14 78 1017.3
20170727153013 82 172 2.6 7.0 0.00 0.14 0.14 80 1017.3
20170727152513 82 177 2.6 7.0 0.00 0.14 0.14 79 1017.6
20170727152012 82 147 3.5 7.8 0.00 0.14 0.14 79 1017.6
20170727151511 81 171 3.5 7.8 0.00 0.14 0.14 78 1017.6
20170727151010 81 185 3.5 8.7 0.00 0.14 0.14 79 1017.3
20170727150508 81 163 5.2 8.7 0.00 0.14 0.14 78 1017.6
20170727150007 81 182 2.6 4.3 0.00 0.14 0.14 81 1017.6
20170727145504 81 189 2.6 4.3 0.00 0.14 0.14 81 1017.6
20170727145003 81 156 2.6 4.3 0.00 0.14 0.14 82 1017.6
20170727144502 81 170 1.7 5.2 0.00 0.14 0.14 82 1017.6
20170727144001 81 150 2.6 7.0 0.00 0.14 0.14 80 1017.6
20170727143501 81 192 2.6 7.0 0.00 0.14 0.14 82 1017.6
20170727143000 80 211 2.6 7.0 0.00 0.14 0.14 82 1017.6
20170727142459 80 194 2.6 5.2 0.00 0.14 0.14 84 1017.6
20170727141958 79 166 3.5 5.2 0.00 0.14 0.14 84 1017.6
20170727141458 78 160 1.7 5.2 0.00 0.14 0.14 85 1017.6
20170727140957 78 198 2.6 5.2 0.00 0.14 0.14 86 1017.6
20170727140456 78 194 2.6 7.0 0.00 0.14 0.14 86 1017.6
20170727135955 77 177 1.7 7.0 0.00 0.14 0.14 87 1017.6
20170727135454 77 176 2.6 6.1 0.00 0.14 0.14 86 1017.6
20170727134953 77 174 2.6 7.0 0.00 0.14 0.14 88 1017.6
20170727134452 77 194 3.5 7.8 0.00 0.14 0.14 89 1017.6
20170727133951 77 179 2.6 7.8 0.00 0.14 0.14 88 1017.6
20170727133450 77 182 3.5 7.0 0.00 0.14 0.14 87 1017.6
20170727132950 77 186 3.5 7.0 0.00 0.14 0.14 87 1017.9
20170727132449 76 163 1.7 7.0 0.00 0.14 0.14 89 1017.9
20170727131948 76 165 1.7 7.0 0.00 0.14 0.14 89 1017.9
20170727131447 76 183 1.7 2.6 0.00 0.14 0.14 91 1017.9
20170727130946 75 165 0.9 2.6 0.00 0.14 0.14 92 1017.9
20170727130445 75 92 0.9 2.6 0.00 0.14 0.14 92 1017.9
20170727125945 75 183 0.0 2.6 0.00 0.14 0.14 92 1017.6
20170727125444 75 165 0.0 3.5 0.00 0.14 0.14 93 1017.6
20170727124943 74 176 1.7 3.5 0.00 0.14 0.14 93 1017.6
20170727124442 74 194 0.9 0.9 0.00 0.14 0.14 94 1017.9
20170727123939 74 201 0.0 0.9 0.00 0.14 0.14 94 1017.9
20170727123438 74 212 0.9 2.6 0.00 0.14 0.14 94 1017.6
20170727122937 73 225 0.9 2.6 0.00 0.14 0.14 94 1017.6
20170727122436 73 136 0.0 4.3 0.00 0.14 0.14 94 1017.9
20170727121935 73 199 1.7 5.2 0.01 0.14 0.14 94 1017.9
20170727121434 73 205 1.7 5.2 0.01 0.14 0.14 94 1017.9
20170727120933 73 199 2.6 7.0 0.01 0.14 0.14 94 1017.9
20170727120432 73 189 1.7 7.0 0.01 0.14 0.14 94 1017.6
20170727115931 73 156 2.6 8.7 0.02 0.14 0.14 94 1017.6
20170727115430 73 177 3.5 8.7 0.03 0.14 0.14 94 1017.6
20170727114929 73 170 1.7 5.2 0.04 0.14 0.14 94 1017.6
20170727114428 73 82 1.7 5.2 0.04 0.14 0.14 94 1017.6
20170727113927 73 186 2.6 7.0 0.08 0.14 0.14 94 1017.6
20170727113426 73 188 1.7 7.0 0.13 0.14 0.14 94 1017.6
20170727112925 73 179 1.7 7.8 0.14 0.14 0.14 94 1017.6
20170727112425 73 181 2.6 7.8 0.14 0.14 0.14 94 1017.3
20170727111923 73 198 1.7 7.8 0.13 0.13 0.13 93 1017.3
20170727111422 73 181 2.6 7.8 0.13 0.13 0.13 93 1017.3
20170727110921 73 183 1.7 7.0 0.13 0.13 0.13 93 1017.3
20170727110420 73 174 2.6 5.2 0.13 0.13 0.13 94 1017.3